Find Starlink 5484

NORAD ID: 55628 Int'l Des: 2023-021 Owner: SPXS Country: US Constellation: starlink operational
LEOCIRCULAR

Live Position

Loading 3D Globe...

About Starlink 5484

Description loading...

Upcoming Passes

Passes for default location (London). Set your location on the main map for personalized predictions.

Altitude History

Loading altitude history...

Two-Line Element Set

1 55628U 23021A 26122.28153304 .00000776 00000-0 72815-4 0 9990
2 55628 70.0003 69.4192 0003530 264.9311 95.1445 14.98334549176323
Epoch: May 2, 2026 • Age: 11 hours

Current Status

Altitude 581.4 km
Velocity 7.57 km/s
Sub-Earth Point -30.52°S, 140.26°E
Launch Date Feb 17, 2023
Age 3.2 years
Type internet

Technical Details

Classification Payload
Mass 305.00 kg
Dry Mass 290.00 kg
Total Mass 305.00 kg
Length 0.20 m
Diameter 2.80 m
Span 9.00 m
Shape Box + pan
Manufacturer SPXS
Bus Type Starlink
Phase Status In Orbit
Owner/State SPXS/US

Most Searched